User: anonymous
Location: Los Gatos B&B
(42.6926°N, 77.0646°W)
Time: 22:58:11
(UTC-04:00)
Language:

SL-16 R/B - Orbit

View from above orbital plane
View from above orbital plane
View from above satellite
View from above satellite

Ground track
Ground track

The orbit data is extracted from the following two-line orbital elements,

1 28353U 04021B   14210.37162154 -.00000272  00000-0 -11789-3 0  8064
2 28353 071.0014 128.3298 0005923 335.0078 163.2617 14.14083641523181
Epoch (UTC): 29 July 2014 08:55:08
Eccentricity: 0.0005923
inclination: 71.0014°
perigee height: 841 km
apogee height: 850 km
right ascension of ascending node: 128.3298°
argument of perigee: 335.0078°
revolutions per day: 14.14083641
mean anomaly at epoch: 163.2617°
orbit number at epoch: 52318

The dashed part of the orbit path shows where the satellite is in the earth's shadow,  

DLR